Regional Weather Roundup
Issued by NWS

Home | Current Version | Previous Version | Graphics & Text | Print | Product List | Glossary On
Versions: 1 2 3 4 5 6 7 8 9 10 11 12 13 14 15 16 17 18 19 20 21 22 23 24 25 26 27 28 29 30 31 32 33 34 35 36 37 38 39 40 41 42 43 44 45 46 47 48 49 50
000
ASUS43 KMKX 261023
RWRWI

WISCONSIN REGIONAL WEATHER ROUNDUP
NATIONAL WEATHER SERVICE MILWAUKEE/SULLIVAN WI
500 AM CDT TUE MAY 26 2015

NOTE: "FAIR" INDICATES FEW OR NO CLOUDS BELOW 12,000 FEET WITH NO
SIGNIFICANT WEATHER AND/OR OBSTRUCTIONS TO VISIBILITY.

WIZ001-002-006>008-014>016-023>028-261100-
NORTHWEST WISCONSIN

CITY           SKY/WX    TMP DP  RH WIND       PRES   REMARKS
SUPERIOR ARPT  FOG       47  47 100 CALM      29.83R VSB 1
ASHLAND        CLOUDY    50  50 100 E3        29.83R FOG
HAYWARD        FOG       54  53  97 CALM      29.80S VSB 1/2
SIREN          FOG       51  51  99 CALM      29.81R VSB 3/4
CUMBERLAND     FOG       52  52 100 CALM      29.80S VSB 1/4
RICE LAKE      FOG       56  55  96 CALM      29.81S VSB<1/4
CHETEK         FOG       58  58 100 N3        29.79F VSB 1
LADYSMITH      CLOUDY    59  58  97 CALM      29.83R FOG
EAU CLAIRE     MOCLDY    57  56  96 CALM      29.77R FOG
MENOMONIE      PTCLDY    58  57  99 CALM      29.78F FOG
NEW RICHMOND   FOG       55  55 100 NW3       29.79F VSB 1/4
OSCEOLA        MOCLDY    52  52 100 CALM      29.82S FOG
$$

WIZ003>005-009-010-017-018-261100-
NORTH CENTRAL WISCONSIN

CITY           SKY/WX    TMP DP  RH WIND       PRES   REMARKS
MANITOWISH WTR CLOUDY    58  58 100 CALM      29.81S
ARBOR VITAE    FOG       58  56  96 CALM      29.82R VSB 3/4
WOODRUFF       FOG       58  56  96 CALM      29.82R VSB 3/4
RHINELANDER    CLOUDY    60  59  96 SW8       29.82F
EAGLE RIVER    CLOUDY    59  59 100 CALM      29.82S
LAND O LAKES   FOG       56  56  99 CALM      29.82S VSB 1/2
PHILLIPS       MOCLDY    57  57 100 CALM      29.80S FOG
TOMAHAWK       MOCLDY    57  56  97 CALM      29.81F FOG
MEDFORD        CLOUDY    60  59  97 W5        29.80F
MERRILL        PTCLDY    52  52 100 CALM      29.82F FOG
$$

WIZ029-030-035-036-043>047-261100-
CENTRAL WISCONSIN

CITY           SKY/WX    TMP DP  RH WIND       PRES   REMARKS
WAUSAU         PTCLDY    62  60  93 SE7       29.81S
MOSINEE        MOCLDY    59  59 100 CALM      29.83S
MARSHFIELD     FOG       60  58  92 CALM      29.81S VSB 3/4
STEVENS POINT  MOCLDY    58  58  99 CALM      29.83S
WAUPACA        PTCLDY    61  60  97 SE6       29.84S
WAUTOMA        NOT AVBL
WISC RAPIDS    CLOUDY    63  60  90 S6        29.83S
CAMP DOUGLAS   NOT AVBL
$$

WIZ011>013-019>022-031-037>040-048>050-261100-
NORTHEAST WISCONSIN

CITY           SKY/WX    TMP DP  RH WIND       PRES   REMARKS
ANTIGO         PTCLDY    58  58 100 S6        29.83F
SHAWANO          N/A     62  60  94 CALM      29.84S FOG
OCONTO         CLEAR     62  62 100 SW3       29.82F
STURGEON BAY   CLEAR     64  57  77 S7        29.87S
GREEN BAY      CLEAR     62  59  90 S5        29.86R
MANITOWOC      NOT AVBL
APPLETON       CLOUDY    64  59  82 S8        29.86S
CLINTONVILLE   PTCLDY    59  59 100 CALM      29.83F
OSHKOSH        CLEAR     63  59  87 S8        29.84F
$$

WIZ032>034-041-042-053>061-261100-
SOUTHWEST WISCONSIN

CITY           SKY/WX    TMP DP  RH WIND       PRES   REMARKS
LA CROSSE      CLOUDY    63  59  87 S5        29.80R
SPARTA         MOCLDY    62  59  90 CALM      29.80S
VIROQUA        CLOUDY    60  60 100 SE10      29.82S
BOSCOBEL       MOCLDY    60  58  92 CALM      29.83S
PRAIRIE DU CHI MOCLDY    61  57  86 SE7       29.83R
PLATTEVILLE    CLOUDY    64  60  86 SE3       29.86F
$$

WIZ056-057-062-063-064-067-068-261100-
SOUTH CENTRAL WISCONSIN

CITY           SKY/WX    TMP DP  RH WIND       PRES   REMARKS
REEDSBURG      PTCLDY    64  61  91 S3        29.84S
BARABOO/DELLS  PTCLDY    63  59  87 S8        29.84F
LONE ROCK      NOT AVBL
MINERAL POINT  MOCLDY    64  61  88 S5        29.87S
MADISON        CLOUDY    68  63  84 S6        29.87R
MIDDLETON      MOCLDY    67  64  88 S8        29.87R
WATERTOWN      CLEAR     64  64 100 S6        29.87F
MONROE         PTCLDY    64  63  94 S12       29.88R
JANESVILLE     CLEAR     68  64  88 S7        29.88S
$$

WIZ051-052-058>065-066-070>072-261100-
SOUTHEAST WISCONSIN

CITY           SKY/WX    TMP DP  RH WIND       PRES   REMARKS
MILWAUKEE      CLEAR     65  60  84 S9        29.90S
WAUKESHA       FAIR      63  61  94 S6        29.91F
MILWAUKEE/TIMM CLEAR     66  59  77 S9        29.90S
RACINE         PTCLDY    65  60  84 S6        29.93R
BURLINGTON     CLEAR     63  61  93 S7        29.91R
KENOSHA        PTCLDY    67  64  90 S9        29.92R
FOND DU LAC    CLEAR     67  61  81 S15       29.86S
SHEBOYGAN      CLEAR     60  58  92 S8        29.88R
WEST BEND      CLEAR     64  61  88 S6        29.89S
JUNEAU         CLEAR     64  61  90 S7        29.89S
$$

LSZ147-162-261100-
LAKE SUPERIOR

STATION/POSITION TIME  TEMP    WIND        PRES    WAVE
                       AIR SEA DIR/SP/G            HT/PER
                 (UTC) (F)     (DEG/KT/KT) (MB)    (FT/S)
W MID LAKE BUOY  0850   42 36  260/  4/  4   N/A     1/ 5
DEVILS ISLAND    0900   48     270/  2/  2   N/A
PORT WING        0900   44     290/  3/  4   N/A
SAXON HARBOR     0900   47        CALM       N/A
$$

LMZ867-665-643>646-261100-
LAKE MICHIGAN

STATION/POSITION TIME  TEMP    WIND        PRES    WAVE
                       AIR SEA DIR/SP/G            HT/PER
                 (UTC) (F)     (DEG/KT/KT) (MB)    (FT/S)
CHAMBERS ISLAND  0900   61     170/  4/  8   N/A
N MID LAKE BUOY  0850   41 37  190/ 10/ 12   N/A     2/ 5
SISTER BAY       0903   68     200/ 11/ 14   N/A
KEWAUNEE LAKESHO 0900   52     180/ 11/ 12   N/A
SHEBOYGAN LAKESH 0900   61     200/  8/  8   N/A
PORT WASHINGTON  0840   56      CALM  /  3   N/A
ATWATER BUOY     0900   54 46  150/ 10/ 12   N/A
MILWAUKEE LAKESH 0900   68     220/  9/ 13   N/A
S MID LAKE BUOY  0850   46 38  180/ 12/ 14   N/A     1
KENOSHA   LAKESH 0900   60     180/ 12/ 13   N/A
$$

TC  - TEMPERATURE IN CELSIUS
VSB - VISIBILITY IN STATUTE MILES
WCI - WIND CHILL INDEX
HX  - HEAT INDEX



USA.gov is the U.S. government's official web portal to all federal, state and local government web resources and services.